Location: Caltech
(34.1382°N, 118.1253°W)
Time: 20:34:02
(UTC-07:00)

Gbstr 26 Del rocket - Visible Passes

Search period start: 22 August 2014 00:00
Search period end: 01 September 2014 00:00
Orbit: 494 x 1278 km, 51.8° (Epoch: 21 August)

Date Brightness Start Highest point End Pass type
(mag) Time Alt. Az. Time Alt. Az. Time Alt. Az.
28 Aug 6.4 04:34:17 10° SE 04:36:14 12° ESE 04:38:17 10° E visible
29 Aug 6.1 04:30:05 10° SSE 04:33:36 16° ESE 04:37:31 10° E visible
30 Aug 5.9 04:26:46 10° SSE 04:31:01 22° ESE 04:35:59 10° ENE visible
31 Aug 5.4 04:25:08 17° SSE 04:28:27 29° ESE 04:34:10 10° ENE visible
